Time,TemperatureF,DewpointF,PressureIn,WindDirection,WindDirectionDegrees,WindSpeedMPH,WindSpeedGustMPH,Humidity,HourlyPrecipIn,Conditions,Clouds,dailyrainin,SolarRadiationWatts/m^2,SoftwareType,DateUTC
2013-06-05 00:13:00,52.4,45.0,30.14,WNW,302,0.0,-999.0,75,-99.99,,,0.00,0,weatherlink.com 1.10,2013-06-05 04:13:00,
2013-06-05 00:28:00,52.7,44.0,30.14,WNW,302,0.0,-999.0,73,-99.99,,,0.00,0,weatherlink.com 1.10,2013-06-05 04:28:00,
2013-06-05 00:43:00,52.8,45.0,30.14,WNW,302,0.0,-999.0,74,-99.99,,,0.00,0,weatherlink.com 1.10,2013-06-05 04:43:00,
2013-06-05 00:58:00,52.4,43.0,30.14,WNW,302,2.0,-999.0,71,-99.99,,,0.00,0,weatherlink.com 1.10,2013-06-05 04:58:00,
2013-06-05 01:13:00,52.3,43.0,30.14,WNW,284,0.0,-999.0,70,-99.99,,,0.00,0,weatherlink.com 1.10,2013-06-05 05:13:00,
2013-06-05 01:28:00,52.4,42.0,30.14,West,267,2.0,-999.0,68,-99.99,,,0.00,0,weatherlink.com 1.10,2013-06-05 05:28:00,
2013-06-05 01:43:00,52.7,42.0,30.14,West,260,2.0,-999.0,66,-99.99,,,0.00,0,weatherlink.com 1.10,2013-06-05 05:43:00,
2013-06-05 01:58:00,52.7,42.0,30.14,WSW,253,1.0,-999.0,66,-99.99,,,0.00,0,weatherlink.com 1.10,2013-06-05 05:58:00,
2013-06-05 02:13:00,52.5,41.0,30.15,WSW,253,5.0,-999.0,66,-99.99,,,0.00,0,weatherlink.com 1.10,2013-06-05 06:13:00,
2013-06-05 02:28:00,52.3,41.0,30.14,WSW,247,0.0,-999.0,66,-99.99,,,0.00,0,weatherlink.com 1.10,2013-06-05 06:28:00,
2013-06-05 02:43:00,52.2,41.0,30.14,WSW,247,1.0,-999.0,67,-99.99,,,0.00,0,weatherlink.com 1.10,2013-06-05 06:43:00,
2013-06-05 02:58:00,52.2,41.0,30.15,WSW,247,1.0,-999.0,66,-99.99,,,0.00,0,weatherlink.com 1.10,2013-06-05 06:58:00,
2013-06-05 03:13:00,52.3,41.0,30.14,WSW,247,2.0,-999.0,66,-99.99,,,0.00,0,weatherlink.com 1.10,2013-06-05 07:13:00,
2013-06-05 03:28:00,52.2,41.0,30.15,WSW,247,1.0,-999.0,66,-99.99,,,0.00,0,weatherlink.com 1.10,2013-06-05 07:28:00,
2013-06-05 03:43:00,52.0,41.0,30.15,WSW,250,1.0,-999.0,67,-99.99,,,0.00,0,weatherlink.com 1.10,2013-06-05 07:43:00,
2013-06-05 03:58:00,51.8,41.0,30.15,WSW,249,1.0,-999.0,66,-99.99,,,0.00,0,weatherlink.com 1.10,2013-06-05 07:58:00,
2013-06-05 04:13:00,51.7,41.0,30.16,WSW,251,2.0,-999.0,66,-99.99,,,0.00,0,weatherlink.com 1.10,2013-06-05 08:13:00,
2013-06-05 04:28:00,51.5,41.0,30.15,WSW,250,1.0,-999.0,67,-99.99,,,0.00,0,weatherlink.com 1.10,2013-06-05 08:28:00,
2013-06-05 04:43:00,51.4,41.0,30.16,WSW,250,2.0,-999.0,67,-99.99,,,0.00,0,weatherlink.com 1.10,2013-06-05 08:43:00,
2013-06-05 04:58:00,51.4,41.0,30.16,WSW,247,4.0,-999.0,68,-99.99,,,0.00,0,weatherlink.com 1.10,2013-06-05 08:58:00,
2013-06-05 05:13:00,51.5,41.0,30.16,WSW,244,5.0,-999.0,68,-99.99,,,0.00,0,weatherlink.com 1.10,2013-06-05 09:13:00,
2013-06-05 05:28:00,51.6,41.0,30.16,WSW,249,0.0,-999.0,68,-99.99,,,0.00,0,weatherlink.com 1.10,2013-06-05 09:28:00,
2013-06-05 05:43:00,51.7,42.0,30.16,WSW,249,2.0,-999.0,69,-99.99,,,0.00,9,weatherlink.com 1.10,2013-06-05 09:43:00,
2013-06-05 05:58:00,51.8,42.0,30.16,WSW,239,4.0,-999.0,69,-99.99,,,0.00,23,weatherlink.com 1.10,2013-06-05 09:58:00,
2013-06-05 06:13:00,52.0,42.0,30.16,WSW,239,2.0,-999.0,69,-99.99,,,0.00,28,weatherlink.com 1.10,2013-06-05 10:13:00,
2013-06-05 06:28:00,52.1,43.0,30.17,WSW,238,2.0,-999.0,70,-99.99,,,0.00,40,weatherlink.com 1.10,2013-06-05 10:28:00,
2013-06-05 06:43:00,52.2,43.0,30.18,WSW,240,1.0,-999.0,71,-99.99,,,0.00,54,weatherlink.com 1.10,2013-06-05 10:43:00,
2013-06-05 06:59:00,52.5,43.0,30.18,WSW,245,2.0,-999.0,71,-99.99,,,0.00,90,weatherlink.com 1.10,2013-06-05 10:59:00,
2013-06-05 07:14:00,52.9,44.0,30.18,WSW,246,2.0,-999.0,72,-99.99,,,0.00,84,weatherlink.com 1.10,2013-06-05 11:14:00,
2013-06-05 07:29:00,53.2,45.0,30.19,WSW,246,3.0,-999.0,73,-99.99,,,0.00,83,weatherlink.com 1.10,2013-06-05 11:29:00,
2013-06-05 07:44:00,53.3,45.0,30.19,WSW,244,0.0,-999.0,73,-99.99,,,0.00,74,weatherlink.com 1.10,2013-06-05 11:44:00,
2013-06-05 07:59:00,53.5,45.0,30.19,WSW,244,2.0,-999.0,74,-99.99,,,0.00,83,weatherlink.com 1.10,2013-06-05 11:59:00,
2013-06-05 08:14:00,53.6,46.0,30.19,WSW,244,0.0,-999.0,74,-99.99,,,0.00,130,weatherlink.com 1.10,2013-06-05 12:14:00,
2013-06-05 08:29:00,53.9,46.0,30.19,WSW,248,2.0,-999.0,75,-99.99,,,0.00,144,weatherlink.com 1.10,2013-06-05 12:29:00,
2013-06-05 08:44:00,54.3,47.0,30.19,WSW,250,0.0,-999.0,75,-99.99,,,0.00,190,weatherlink.com 1.10,2013-06-05 12:44:00,
2013-06-05 08:59:00,54.8,47.0,30.19,WSW,250,1.0,-999.0,75,-99.99,,,0.00,239,weatherlink.com 1.10,2013-06-05 12:59:00,
2013-06-05 09:14:00,55.7,48.0,30.19,WSW,250,0.0,-999.0,74,-99.99,,,0.00,225,weatherlink.com 1.10,2013-06-05 13:14:00,
2013-06-05 09:29:00,56.4,48.0,30.20,WSW,250,0.0,-999.0,73,-99.99,,,0.00,274,weatherlink.com 1.10,2013-06-05 13:29:00,
2013-06-05 09:44:00,57.7,48.0,30.20,WSW,250,0.0,-999.0,71,-99.99,,,0.00,325,weatherlink.com 1.10,2013-06-05 13:44:00,
2013-06-05 09:59:00,58.5,48.0,30.20,WSW,250,1.0,-999.0,69,-99.99,,,0.00,341,weatherlink.com 1.10,2013-06-05 13:59:00,
2013-06-05 10:14:00,58.8,49.0,30.20,WSW,250,2.0,-999.0,69,-99.99,,,0.00,520,weatherlink.com 1.10,2013-06-05 14:14:00,
2013-06-05 10:29:00,60.6,50.0,30.20,WSW,252,1.0,-999.0,68,-99.99,,,0.00,432,weatherlink.com 1.10,2013-06-05 14:29:00,
2013-06-05 10:44:00,61.2,50.0,30.19,NE,45,0.0,-999.0,66,-99.99,,,0.00,840,weatherlink.com 1.10,2013-06-05 14:44:00,
2013-06-05 10:59:00,61.7,49.0,30.19,NE,42,2.0,-999.0,64,-99.99,,,0.00,515,weatherlink.com 1.10,2013-06-05 14:59:00,
2013-06-05 11:14:00,62.4,49.0,30.19,NE,43,0.0,-999.0,63,-99.99,,,0.00,425,weatherlink.com 1.10,2013-06-05 15:14:00,
2013-06-05 12:04:00,63.9,50.0,30.19,North,355,0.0,-999.0,61,-99.99,,,0.00,872,weatherlink.com 1.10,2013-06-05 16:04:00,
2013-06-05 12:15:00,65.8,50.0,30.18,North,5,4.0,-999.0,57,-99.99,,,0.00,454,weatherlink.com 1.10,2013-06-05 16:15:00,
2013-06-05 12:30:00,65.9,51.0,30.18,North,355,4.0,-999.0,58,-99.99,,,0.00,846,weatherlink.com 1.10,2013-06-05 16:30:00,
2013-06-05 12:45:00,66.0,49.0,30.17,NNE,14,0.0,-999.0,55,-99.99,,,0.00,592,weatherlink.com 1.10,2013-06-05 16:45:00,
2013-06-05 13:00:00,67.4,51.0,30.16,NNE,28,7.0,-999.0,55,-99.99,,,0.00,438,weatherlink.com 1.10,2013-06-05 17:00:00,
2013-06-05 13:15:00,67.6,47.0,30.15,NNE,17,2.0,-999.0,47,-99.99,,,0.00,698,weatherlink.com 1.10,2013-06-05 17:15:00,
2013-06-05 13:30:00,67.6,45.0,30.14,ENE,68,7.0,-999.0,44,-99.99,,,0.00,705,weatherlink.com 1.10,2013-06-05 17:30:00,
2013-06-05 13:45:00,68.0,51.0,30.14,NNW,329,6.0,-999.0,55,-99.99,,,0.00,1056,weatherlink.com 1.10,2013-06-05 17:45:00,
2013-06-05 14:00:00,69.0,51.0,30.14,NE,39,0.0,-999.0,53,-99.99,,,0.00,972,weatherlink.com 1.10,2013-06-05 18:00:00,
2013-06-05 14:15:00,69.8,51.0,30.14,North,5,6.0,-999.0,52,-99.99,,,0.00,543,weatherlink.com 1.10,2013-06-05 18:15:00,
2013-06-05 14:30:00,69.4,50.0,30.13,NE,45,5.0,-999.0,50,-99.99,,,0.00,566,weatherlink.com 1.10,2013-06-05 18:30:00,
2013-06-05 14:45:00,68.8,51.0,30.13,North,5,7.0,-999.0,53,-99.99,,,0.00,997,weatherlink.com 1.10,2013-06-05 18:45:00,
2013-06-05 16:05:00,67.2,49.0,30.12,NNW,335,6.0,-999.0,53,-99.99,,,0.00,490,weatherlink.com 1.10,2013-06-05 20:05:00,
2013-06-05 16:15:00,67.0,49.0,30.11,NW,313,1.0,-999.0,53,-99.99,,,0.00,482,weatherlink.com 1.10,2013-06-05 20:15:00,
2013-06-05 16:30:00,66.8,48.0,30.11,NE,47,8.0,-999.0,52,-99.99,,,0.00,408,weatherlink.com 1.10,2013-06-05 20:30:00,
2013-06-05 16:45:00,67.4,48.0,30.11,NNE,12,8.0,-999.0,50,-99.99,,,0.00,701,weatherlink.com 1.10,2013-06-05 20:45:00,
2013-06-05 17:00:00,67.9,47.0,30.11,NNW,338,7.0,-999.0,48,-99.99,,,0.00,543,weatherlink.com 1.10,2013-06-05 21:00:00,
2013-06-05 17:15:00,67.1,47.0,30.10,NNE,17,7.0,-999.0,48,-99.99,,,0.00,529,weatherlink.com 1.10,2013-06-05 21:15:00,
2013-06-05 17:30:00,66.3,45.0,30.10,NNE,33,6.0,-999.0,46,-99.99,,,0.00,408,weatherlink.com 1.10,2013-06-05 21:30:00,
2013-06-05 17:45:00,66.1,44.0,30.10,NNE,13,4.0,-999.0,45,-99.99,,,0.00,538,weatherlink.com 1.10,2013-06-05 21:45:00,
2013-06-05 18:00:00,66.2,43.0,30.10,North,9,5.0,-999.0,44,-99.99,,,0.00,462,weatherlink.com 1.10,2013-06-05 22:00:00,
2013-06-05 18:16:00,66.0,44.0,30.09,NNE,32,4.0,-999.0,45,-99.99,,,0.00,510,weatherlink.com 1.10,2013-06-05 22:16:00,
2013-06-05 18:31:00,65.6,44.0,30.09,NNW,335,5.0,-999.0,45,-99.99,,,0.00,185,weatherlink.com 1.10,2013-06-05 22:31:00,
2013-06-05 18:46:00,65.1,44.0,30.10,NNW,331,3.0,-999.0,46,-99.99,,,0.00,97,weatherlink.com 1.10,2013-06-05 22:46:00,
2013-06-05 19:01:00,64.0,43.0,30.09,NNE,15,2.0,-999.0,47,-99.99,,,0.00,102,weatherlink.com 1.10,2013-06-05 23:01:00,
2013-06-05 19:16:00,63.2,42.0,30.10,NNW,346,11.0,-999.0,46,-99.99,,,0.00,77,weatherlink.com 1.10,2013-06-05 23:16:00,
2013-06-05 19:31:00,62.3,42.0,30.09,North,355,9.0,-999.0,48,-99.99,,,0.00,69,weatherlink.com 1.10,2013-06-05 23:31:00,
2013-06-05 19:46:00,61.8,42.0,30.09,NNW,342,6.0,-999.0,48,-99.99,,,0.00,44,weatherlink.com 1.10,2013-06-05 23:46:00,
2013-06-05 20:01:00,61.2,41.0,30.09,North,5,6.0,-999.0,47,-99.99,,,0.00,25,weatherlink.com 1.10,2013-06-06 00:01:00,
2013-06-05 20:16:00,60.7,41.0,30.08,NNE,24,5.0,-999.0,48,-99.99,,,0.00,14,weatherlink.com 1.10,2013-06-06 00:16:00,
2013-06-05 20:31:00,60.2,41.0,30.08,North,9,5.0,-999.0,50,-99.99,,,0.00,7,weatherlink.com 1.10,2013-06-06 00:31:00,
2013-06-05 20:46:00,59.8,42.0,30.08,North,349,7.0,-999.0,53,-99.99,,,0.00,0,weatherlink.com 1.10,2013-06-06 00:46:00,
2013-06-05 21:01:00,59.5,43.0,30.08,North,360,3.0,-999.0,55,-99.99,,,0.00,0,weatherlink.com 1.10,2013-06-06 01:01:00,
2013-06-05 21:16:00,59.3,43.0,30.09,NNE,24,7.0,-999.0,56,-99.99,,,0.00,0,weatherlink.com 1.10,2013-06-06 01:16:00,
2013-06-05 21:31:00,59.2,44.0,30.09,NNE,24,3.0,-999.0,57,-99.99,,,0.00,0,weatherlink.com 1.10,2013-06-06 01:31:00,
2013-06-05 21:46:00,59.0,44.0,30.08,NNE,17,0.0,-999.0,58,-99.99,,,0.00,0,weatherlink.com 1.10,2013-06-06 01:46:00,
2013-06-05 22:01:00,58.7,44.0,30.08,NNE,16,0.0,-999.0,59,-99.99,,,0.00,0,weatherlink.com 1.10,2013-06-06 02:01:00,
2013-06-05 22:16:00,58.4,44.0,30.09,NNE,17,0.0,-999.0,60,-99.99,,,0.00,0,weatherlink.com 1.10,2013-06-06 02:16:00,
2013-06-05 22:31:00,58.2,45.0,30.08,NNE,17,4.0,-999.0,62,-99.99,,,0.00,0,weatherlink.com 1.10,2013-06-06 02:31:00,
2013-06-05 22:46:00,58.0,45.0,30.08,NNE,17,0.0,-999.0,62,-99.99,,,0.00,0,weatherlink.com 1.10,2013-06-06 02:46:00,
2013-06-05 23:01:00,57.8,45.0,30.07,NNE,17,1.0,-999.0,63,-99.99,,,0.00,0,weatherlink.com 1.10,2013-06-06 03:01:00,
2013-06-05 23:16:00,57.7,45.0,30.07,NNE,18,0.0,-999.0,63,-99.99,,,0.00,0,weatherlink.com 1.10,2013-06-06 03:16:00,
2013-06-05 23:46:00,57.7,45.0,30.07,NNE,18,0.0,-999.0,64,-99.99,,,0.00,0,weatherlink.com 1.10,2013-06-06 03:46:00,